Anchorage Merrill, AK

1:09 PM AKDT on June 24, 2018 (GMT -0800)
Merrill

Weather History for PAMR - September, 2017

Change the Weather History Date:

Wednesday, September 13, 2017

  Actual Average Record
Temperature  
Mean Temperature 56 °F -  
Max Temperature 61 °F 55 °F 66 °F (1997)
Min Temperature 51 °F 40 °F 37 °F (2004)
Degree Days  
Heating Degree Days 10    
Growing Degree Days 6 (Base 50)    
Moisture  
Dew Point 42 °F    
Average Humidity 59    
Maximum Humidity 83    
Minimum Humidity 49    
Precipitation  
Precipitation 0.00 in - - ()
Sea Level Pressure  
Sea Level Pressure 30.06 in    
Wind  
Wind Speed 8 mph (South)    
Max Wind Speed 14 mph    
Max Gust Speed 29 mph    
Visibility 10 miles    
Events Rain    
Averages and records for this station are not official NWS values.
T = Trace of Precipitation, MM = Missing Value Source: NWS Daily Summary

Daily Weather History Graph

Daily Weather History Graph

Search for Another Location

Airport or City:

Astronomy

Sep. 13, 2017 Rise Set
Actual Time 7:22 AM AKDT 8:26 PM AKDT
Civil Twilight 6:37 AM AKDT 9:10 PM AKDT
Nautical Twilight 5:42 AM AKDT 10:05 PM AKDT
Astronomical Twilight 4:38 AM AKDT 11:08 PM AKDT
Moon No Moon Rise 5:09 PM AKDT (9/13)
Length of Visible Light 14h 32m
Length of Day
13h 04m
Last Quarter, 44% of the Moon is Illuminated
Sep 13
Last Quarter
Sep 19
New
Sep 27
First Quarter
Oct 5
Full
Oct 12
Last Quarter

Hourly Weather History & Observations

Time (AKDT) Temp. Dew Point Humidity Pressure Visibility Wind Dir Wind Speed Gust Speed Precip Events Conditions
12:53 AM 51.1 °F 46.0 °F 83% 30.09 in 10.0 mi NW 5.8 mph - 0.00 in Rain Light Rain
1:53 AM 51.1 °F 46.0 °F 83% 30.07 in 10.0 mi NNW 6.9 mph - 0.00 in   Overcast
2:53 AM 53.1 °F 44.1 °F 71% 30.08 in 10.0 mi NNW 5.8 mph - N/A   Overcast
3:53 AM 52.0 °F 45.0 °F 77% 30.07 in 10.0 mi NNW 3.5 mph - N/A   Overcast
4:53 AM 52.0 °F 45.0 °F 77% 30.06 in 10.0 mi NNW 3.5 mph - N/A   Overcast
5:53 AM 57.0 °F 41.0 °F 55% 30.04 in 10.0 mi SE 12.7 mph 19.6 mph N/A   Overcast
6:53 AM 55.0 °F 43.0 °F 64% 30.05 in 10.0 mi Variable 3.5 mph - N/A   Overcast
7:53 AM 57.9 °F 39.9 °F 51% 30.05 in 10.0 mi SE 8.1 mph 18.4 mph N/A   Overcast
8:53 AM 57.9 °F 39.9 °F 51% 30.05 in 10.0 mi SSE 9.2 mph - N/A   Clear
9:53 AM 59.0 °F 41.0 °F 51% 30.05 in 10.0 mi SE 9.2 mph 18.4 mph N/A   Partly Cloudy
10:53 AM 60.1 °F 42.1 °F 51% 30.05 in 10.0 mi SE 11.5 mph 20.7 mph N/A   Overcast
11:53 AM 60.1 °F 41.0 °F 49% 30.05 in 10.0 mi South 11.5 mph 18.4 mph N/A   Mostly Cloudy
12:53 PM 59.0 °F 41.0 °F 51% 30.05 in 10.0 mi South 11.5 mph 28.8 mph N/A   Clear
1:53 PM 59.0 °F 42.1 °F 53% 30.06 in 10.0 mi South 11.5 mph 23.0 mph N/A   Scattered Clouds
2:53 PM 59.0 °F 41.0 °F 51% 30.05 in 10.0 mi South 13.8 mph 21.9 mph N/A   Overcast
3:53 PM 60.1 °F 41.0 °F 49% 30.05 in 10.0 mi SSE 10.4 mph 24.2 mph N/A   Overcast
4:53 PM 59.0 °F 41.0 °F 51% 30.06 in 10.0 mi South 6.9 mph 18.4 mph N/A   Overcast
5:53 PM 57.9 °F 42.1 °F 56% 30.05 in 10.0 mi SSE 6.9 mph - N/A   Overcast
6:53 PM 57.0 °F 42.1 °F 57% 30.06 in 10.0 mi SSE 12.7 mph 21.9 mph 0.00 in   Overcast
7:53 PM 55.9 °F 41.0 °F 57% 30.05 in 10.0 mi South 9.2 mph - N/A   Overcast
8:53 PM 55.9 °F 41.0 °F 57% 30.05 in 10.0 mi South 11.5 mph - N/A   Overcast
9:53 PM 55.9 °F 39.9 °F 55% 30.06 in 10.0 mi South 8.1 mph - N/A   Overcast
10:53 PM 55.9 °F 39.0 °F 53% 30.06 in 10.0 mi South 8.1 mph - N/A   Overcast
11:53 PM 55.9 °F 39.0 °F 53% 30.06 in 10.0 mi South 6.9 mph - N/A   Overcast